Regional Weather Roundup
Issued by NWS Kansas City/Pleasant Hill, MO

Home | Current Version | Previous Version | Graphics & Text | Print | Product List | Glossary Off
Versions: 1 2 3 4 5 6 7 8 9 10 11 12 13 14 15 16 17 18 19 20 21 22 23 24 25 26

000
ASUS43 KEAX 131510
RWREAX

WEATHER ROUNDUP FOR EASTERN KANSAS AND NORTHWEST MISSOURI
NATIONAL WEATHER SERVICE KANSAS CITY/PLEASANT HILL MO
900 AM CST WED DEC 13 2017

KSZ040-057-103>105-MOZ028-029-037-043-131600-
...KANSAS CITY METROPOLITAN AREA...

CITY           SKY/WX    TMP DP  RH WIND       PRES   REMARKS
K.C. INTL      CLOUDY    42  25  50 W10       29.72R
K.C. DOWNTOWN  MOSUNNY   41  26  55 SW8       29.73R
LEES SUMMIT    SUNNY     41  27  57 W15       29.73R WCI  33
OLATHE - IXD   CLOUDY    40  26  57 W9        29.77R WCI  34
OLATHE - OJC   SUNNY     39  26  59 W10       29.75R WCI  32
LAWRENCE       CLOUDY    39  27  62 NW5       29.77R

$$

MOZ001>008-011>017-020>025-030>033-038>040-044>046-053-054-131600-
...NORTHERN AND CENTRAL MISSOURI...

CITY           SKY/WX    TMP DP  RH WIND       PRES   REMARKS
ST. JOSEPH     CLOUDY    45  28  51 W14       29.70S
MOSBY          MOSUNNY   43  27  52 W9        29.71R
WARRENSBURG    SUNNY     37  28  70 SW10      29.72S WCI  30
WHITEMAN AFB   PTSUNNY   40  26  56 W15       29.67S WCI  32
CLINTON        SUNNY     39  27  60 W14       29.77R WCI  31
SEDALIA        SUNNY     41  28  60 SW15G23   29.72S WCI  33
WARSAW         NOT AVBL
CHILLICOTHE      N/A     42  26  53 W8        29.65R
KIRKSVILLE     MOSUNNY   38  32  79 W13G22    29.58R WCI  30

$$

MOZ041-047>049-056>058-063>065-088>090-097-131600-
...EASTERN AND SOUTHERN MISSOURI...

CITY           SKY/WX    TMP DP  RH WIND       PRES   REMARKS
ST. LOUIS INTL PTSUNNY   38  20  48 S14G21    29.64F WCI  30
SPIRIT OF STL  MOSUNNY   41  21  44 SW15G26   29.64F WCI  33
COLUMBIA       SUNNY     42  26  53 SW18      29.66F WCI  34
JEFFERSON CITY   N/A     40  25  55 CALM      29.70S
ROLLA          SUNNY     40  22  48 SW16      29.71R WCI  31
SPRINGFIELD    SUNNY     46  25  43 W15       29.80R
BRANSON        SUNNY     48  19  32 MISG      29.80F
JOPLIN         SUNNY     43  28  55 SW17G25   29.86R
WEST PLAINS    SUNNY     39  18  42 SW10      29.80F WCI  32

$$

IAZ060-094-KSZ022-034>040-054-083-096-NEZ052-066-093-131600-
...KANSAS...SOUTHEAST NEBRASKA AND IOWA...

CITY           SKY/WX    TMP DP  RH WIND       PRES   REMARKS
TOPEKA         CLOUDY    44  24  45 W12       29.78R
MANHATTAN      CLOUDY    40  24  53 SW10      29.83R WCI  33
EMPORIA        CLOUDY    43  22  43 W12       29.83R
CHANUTE        SUNNY     40  27  59 W6        29.84R
WICHITA        MOSUNNY   49  23  36 NW15      29.89R
OMAHA          MOSUNNY   49  31  49 NW28G41   29.69R
LINCOLN        SUNNY     51  24  34 NW18G29   29.80R
FALLS CITY     CLOUDY    53  24  32 NW22G29   29.71R
LAMONI         CLOUDY    46  25  43 W24G32    29.58R
DES MOINES     CLOUDY    48  30  49 NW23G37   29.51R

$$





USA.gov is the U.S. government's official web portal to all federal, state and local government web resources and services.